TimeIST,TemperatureF,Dew PointF,Humidity,Sea Level PressureIn,VisibilityMPH,Wind Direction,Wind SpeedMPH,Gust SpeedMPH,PrecipitationIn,Events,Conditions,WindDirDegrees,DateUTC
12:00 AM,33.8,28.4,81,30.24,6.2,NNW,9.2,-,N/A,,Partly Cloudy,340,2012-10-26 23:00:00
12:30 AM,33.8,28.4,81,30.24,-9999.0,NNW,8.1,-,N/A,,Clear,340,2012-10-26 23:30:00
1:00 AM,33,29,78,30.27,16,NNW,11.2,,,,,340,2012-10-27 00:00:00
1:00 AM,32.0,28.4,87,30.24,-9999.0,NNW,10.4,-,N/A,,Clear,340,2012-10-27 00:00:00
1:30 AM,33.8,28.4,81,30.27,-9999.0,NNW,11.5,-,N/A,,Clear,340,2012-10-27 00:30:00
2:00 AM,33.8,28.4,81,30.27,-9999.0,North,5.8,-,N/A,,Clear,360,2012-10-27 01:00:00
2:30 AM,33.8,30.2,87,30.27,-9999.0,NE,1.2,-,N/A,,Clear,40,2012-10-27 01:30:00
3:00 AM,32.0,28.4,87,30.27,-9999.0,North,1.2,-,N/A,,Clear,10,2012-10-27 02:00:00
3:30 AM,32.0,30.2,93,30.27,-9999.0,NNW,9.2,-,N/A,,Clear,330,2012-10-27 02:30:00
4:00 AM,32.0,30.2,93,30.27,-9999.0,NNW,5.8,-,N/A,,Clear,340,2012-10-27 03:00:00
4:30 AM,32.0,30.2,93,30.27,-9999.0,NNW,4.6,-,N/A,,Clear,340,2012-10-27 03:30:00
5:00 AM,32.0,28.4,87,30.30,-9999.0,North,3.5,-,N/A,,Clear,350,2012-10-27 04:00:00
5:30 AM,30.2,28.4,93,30.30,-9999.0,North,6.9,-,N/A,,Clear,350,2012-10-27 04:30:00
6:00 AM,32.0,30.2,93,30.30,-9999.0,NNW,10.4,-,N/A,,Clear,340,2012-10-27 05:00:00
6:30 AM,32.0,28.4,87,30.30,-9999.0,NNE,5.8,-,N/A,,Clear,30,2012-10-27 05:30:00
7:00 AM,33,29,78,30.34,16,East,2.2,,,,,90,2012-10-27 06:00:00
7:00 AM,32.0,28.4,87,30.33,-9999.0,East,2.3,-,N/A,,Clear,90,2012-10-27 06:00:00
7:30 AM,30.2,26.6,86,30.33,-9999.0,Variable,1.2,-,N/A,,Clear,0,2012-10-27 06:30:00
8:00 AM,28.4,26.6,93,30.36,-9999.0,Variable,1.2,-,N/A,,Clear,0,2012-10-27 07:00:00
8:30 AM,28.4,26.6,93,30.36,-9999.0,West,3.5,-,N/A,,Clear,280,2012-10-27 07:30:00
9:00 AM,30.2,28.4,93,30.36,-9999.0,WNW,2.3,-,N/A,,Clear,300,2012-10-27 08:00:00
9:30 AM,33.8,30.2,87,30.36,-9999.0,WNW,4.6,-,N/A,,Clear,300,2012-10-27 08:30:00
10:00 AM,35.6,32.0,87,30.39,-9999.0,NW,5.8,-,N/A,,Clear,310,2012-10-27 09:00:00
10:30 AM,37.4,32.0,81,30.39,-9999.0,NW,3.5,-,N/A,,Clear,320,2012-10-27 09:30:00
11:00 AM,39.2,30.2,70,30.39,-9999.0,NW,4.6,-,N/A,,Clear,310,2012-10-27 10:00:00
11:30 AM,41.0,30.2,65,30.39,-9999.0,NW,4.6,-,N/A,,Clear,320,2012-10-27 10:30:00
12:00 PM,41.0,30.2,65,30.39,-9999.0,NW,4.6,-,N/A,,Clear,320,2012-10-27 11:00:00
12:30 PM,42.8,32.0,66,30.42,-9999.0,NW,4.6,-,N/A,,Clear,310,2012-10-27 11:30:00
1:00 PM,44,28,41,30.41,31,NW,4.5,,,,Scattered Clouds,320,2012-10-27 12:00:00
1:00 PM,44.6,28.4,53,30.39,-9999.0,NW,4.6,-,N/A,,Clear,320,2012-10-27 12:00:00
1:30 PM,44.6,26.6,49,30.39,-9999.0,WNW,4.6,-,N/A,,Clear,290,2012-10-27 12:30:00
2:00 PM,46.4,28.4,50,30.39,-9999.0,NW,4.6,-,N/A,,Clear,310,2012-10-27 13:00:00
2:30 PM,46.4,28.4,50,30.36,-9999.0,NW,4.6,-,N/A,,Clear,310,2012-10-27 13:30:00
3:00 PM,46.4,28.4,50,30.36,-9999.0,WNW,5.8,-,N/A,,Clear,290,2012-10-27 14:00:00
3:30 PM,46.4,30.2,53,30.36,6.2,WNW,6.9,-,N/A,,Partly Cloudy,300,2012-10-27 14:30:00
4:00 PM,48.2,32.0,54,30.36,6.2,West,8.1,-,N/A,,Mostly Cloudy,280,2012-10-27 15:00:00
4:30 PM,46.4,32.0,57,30.36,6.2,WNW,8.1,-,N/A,,Mostly Cloudy,290,2012-10-27 15:30:00
5:00 PM,46.4,33.8,62,30.36,6.2,West,9.2,-,N/A,,Mostly Cloudy,280,2012-10-27 16:00:00
5:30 PM,44.6,33.8,66,30.33,6.2,West,9.2,-,N/A,,Mostly Cloudy,270,2012-10-27 16:30:00
6:00 PM,44.6,33.8,66,30.33,6.2,West,10.4,-,N/A,,Mostly Cloudy,280,2012-10-27 17:00:00
6:30 PM,44.6,33.8,66,30.33,6.2,West,9.2,-,N/A,,Mostly Cloudy,260,2012-10-27 17:30:00
7:00 PM,45,34,56,30.35,25,WSW,11.2,,,,Mostly Cloudy,250,2012-10-27 18:00:00
7:00 PM,44.6,33.8,66,30.33,6.2,WSW,11.5,-,N/A,,Mostly Cloudy,250,2012-10-27 18:00:00
7:30 PM,44.6,35.6,71,30.33,6.2,West,10.4,-,N/A,,Mostly Cloudy,260,2012-10-27 18:30:00
8:00 PM,44.6,35.6,71,30.33,6.2,WSW,9.2,-,N/A,,Mostly Cloudy,250,2012-10-27 19:00:00
8:30 PM,46.4,37.4,71,30.33,6.2,WSW,13.8,-,N/A,,Mostly Cloudy,250,2012-10-27 19:30:00
9:00 PM,46.4,37.4,71,30.33,6.2,WSW,10.4,-,N/A,,Mostly Cloudy,250,2012-10-27 20:00:00
9:30 PM,44.6,37.4,76,30.30,6.2,WSW,9.2,-,N/A,,Mostly Cloudy,250,2012-10-27 20:30:00
10:00 PM,44.6,37.4,76,30.30,6.2,WSW,10.4,-,N/A,,Mostly Cloudy,250,2012-10-27 21:00:00
10:30 PM,44.6,39.2,81,30.30,6.2,West,8.1,-,N/A,,Mostly Cloudy,260,2012-10-27 21:30:00
11:00 PM,44.6,37.4,76,30.27,6.2,West,8.1,-,N/A,,Mostly Cloudy,260,2012-10-27 22:00:00
11:30 PM,46.4,39.2,76,30.27,6.2,West,10.4,-,N/A,,Mostly Cloudy,260,2012-10-27 22:30:00